| time (UTC) | temp F | wind direction | speed knots | gust knots | rain 1hr in | rain 24hr in | rain mn in | humidity % | barometer mb |
| 20260504110507 | 50 | 44 | 0.0 | 0.9 | 0.00 | 0.00 | 0.00 | 70 | 1003.5 |
| 20260504100503 | 50 | 48 | 0.0 | 1.7 | 0.00 | 0.00 | 0.00 | 73 | 1004.0 |
| 20260504081527 | 50 | 47 | 0.0 | 0.9 | 0.00 | 0.00 | 0.00 | 71 | 1004.8 |
| 20260504081011 | 50 | 47 | 0.0 | 0.9 | 0.00 | 0.00 | 0.00 | 72 | 1004.8 |
| 20260504080511 | 50 | 47 | 0.0 | 0.9 | 0.00 | 0.00 | 0.00 | 72 | 1004.9 |
| 20260504050505 | 55 | 52 | 0.0 | 0.0 | 0.00 | 0.00 | 0.00 | 64 | 1006.5 |
| 20260504050022 | 55 | 52 | 0.0 | 0.0 | 0.00 | 0.00 | 0.00 | 63 | 1006.5 |
| 20260504045511 | 56 | 52 | 0.0 | 0.0 | 0.00 | 0.00 | 0.00 | 63 | 1006.6 |
| 20260504045007 | 56 | 52 | 0.0 | 0.0 | 0.00 | 0.00 | 0.00 | 62 | 1006.6 |
| 20260504044528 | 56 | 52 | 0.0 | 0.0 | 0.00 | 0.00 | 0.00 | 61 | 1006.7 |
| 20260504044003 | 57 | 52 | 0.0 | 0.0 | 0.00 | 0.00 | 0.00 | 60 | 1006.7 |
| 20260504043505 | 57 | 52 | 0.0 | 0.0 | 0.00 | 0.00 | 0.00 | 59 | 1006.7 |
| 20260504043008 | 57 | 52 | 0.0 | 0.0 | 0.00 | 0.00 | 0.00 | 59 | 1006.8 |
| 20260504042504 | 58 | 52 | 0.0 | 0.0 | 0.00 | 0.00 | 0.00 | 58 | 1006.8 |
| 20260504042003 | 58 | 51 | 0.0 | 0.0 | 0.00 | 0.00 | 0.00 | 57 | 1006.7 |
| 20260504041515 | 58 | 51 | 0.0 | 0.0 | 0.00 | 0.00 | 0.00 | 56 | 1006.7 |
| 20260504041003 | 59 | 52 | 0.0 | 0.0 | 0.00 | 0.00 | 0.00 | 56 | 1006.7 |
| 20260504040504 | 59 | 51 | 0.0 | 0.9 | 0.00 | 0.00 | 0.00 | 56 | 1006.7 |
| 20260504040019 | 59 | 51 | 0.0 | 0.9 | 0.00 | 0.00 | 0.00 | 55 | 1006.7 |
| 20260504035509 | 59 | 51 | 0.0 | 0.0 | 0.00 | 0.00 | 0.00 | 55 | 1006.7 |
| 20260504035007 | 59 | 60 | 0.0 | 0.0 | 0.00 | 0.00 | 0.00 | 55 | 1006.7 |
| 20260504034524 | 60 | 60 | 0.0 | 0.0 | 0.00 | 0.00 | 0.00 | 54 | 1006.7 |
| 20260504034011 | 60 | 60 | 0.0 | 0.9 | 0.00 | 0.00 | 0.00 | 53 | 1006.7 |
| 20260504033507 | 60 | 60 | 0.0 | 0.9 | 0.00 | 0.00 | 0.00 | 53 | 1006.8 |
| 20260504033024 | 60 | 60 | 0.0 | 0.9 | 0.00 | 0.00 | 0.00 | 52 | 1006.8 |
| 20260504032503 | 60 | 60 | 0.0 | 2.6 | 0.00 | 0.00 | 0.00 | 52 | 1006.9 |
| 20260504032006 | 61 | 60 | 0.0 | 2.6 | 0.00 | 0.00 | 0.00 | 51 | 1006.9 |
| 20260504031528 | 61 | 86 | 0.0 | 1.7 | 0.00 | 0.00 | 0.00 | 51 | 1006.9 |
| 20260504031003 | 61 | 32 | 0.0 | 0.9 | 0.00 | 0.00 | 0.00 | 51 | 1006.9 |
| 20260504030504 | 61 | 32 | 0.0 | 0.9 | 0.00 | 0.00 | 0.00 | 50 | 1006.8 |
| 20260504030015 | 62 | 32 | 0.0 | 0.0 | 0.00 | 0.00 | 0.00 | 50 | 1006.8 |
| 20260504025510 | 62 | 32 | 0.0 | 0.9 | 0.00 | 0.00 | 0.00 | 49 | 1006.7 |
| 20260504025007 | 62 | 32 | 0.0 | 0.9 | 0.00 | 0.00 | 0.00 | 49 | 1006.8 |
| 20260504024530 | 62 | 32 | 0.0 | 1.7 | 0.00 | 0.00 | 0.00 | 49 | 1006.8 |
| 20260504024007 | 63 | 51 | 0.0 | 1.7 | 0.00 | 0.00 | 0.00 | 48 | 1006.7 |
| 20260504023508 | 63 | 53 | 0.0 | 0.9 | 0.00 | 0.00 | 0.00 | 48 | 1006.6 |
| 20260504023026 | 63 | 55 | 0.0 | 0.9 | 0.00 | 0.00 | 0.00 | 48 | 1006.6 |
| 20260504022509 | 63 | 44 | 0.0 | 0.9 | 0.00 | 0.00 | 0.00 | 48 | 1006.5 |
| 20260504022008 | 63 | 21 | 0.0 | 1.7 | 0.00 | 0.00 | 0.00 | 48 | 1006.5 |
| 20260504021525 | 63 | 49 | 0.0 | 1.7 | 0.00 | 0.00 | 0.00 | 47 | 1006.5 |
| 20260504021012 | 64 | 86 | 0.0 | 0.9 | 0.00 | 0.00 | 0.00 | 47 | 1006.4 |
| 20260504020508 | 64 | 91 | 0.0 | 1.7 | 0.00 | 0.00 | 0.00 | 46 | 1006.4 |
| 20260504020020 | 64 | 90 | 0.0 | 2.6 | 0.00 | 0.00 | 0.00 | 46 | 1006.4 |
| 20260504015506 | 64 | 101 | 0.9 | 2.6 | 0.00 | 0.00 | 0.00 | 46 | 1006.3 |
| 20260504015005 | 64 | 72 | 0.0 | 1.7 | 0.00 | 0.00 | 0.00 | 46 | 1006.2 |
| 20260504014515 | 65 | 67 | 0.0 | 0.9 | 0.00 | 0.00 | 0.00 | 45 | 1006.3 |
| 20260504014007 | 65 | 89 | 0.0 | 0.9 | 0.00 | 0.00 | 0.00 | 45 | 1006.3 |
| 20260504013504 | 65 | 89 | 0.0 | 0.9 | 0.00 | 0.00 | 0.00 | 45 | 1006.2 |
| 20260504013026 | 66 | 94 | 0.0 | 0.9 | 0.00 | 0.00 | 0.00 | 44 | 1006.1 |
| 20260504012507 | 66 | 98 | 0.0 | 1.7 | 0.00 | 0.00 | 0.00 | 44 | 1006.0 |
| 20260504012007 | 67 | 34 | 0.0 | 5.2 | 0.00 | 0.00 | 0.00 | 43 | 1005.9 |
| 20260504011522 | 67 | 103 | 0.0 | 5.2 | 0.00 | 0.00 | 0.00 | 43 | 1005.9 |
| 20260504011006 | 67 | 105 | 0.9 | 3.5 | 0.00 | 0.00 | 0.00 | 42 | 1005.9 |
| 20260504010507 | 67 | 122 | 0.0 | 2.6 | 0.00 | 0.00 | 0.00 | 42 | 1005.9 |
| 20260504010024 | 68 | 92 | 0.0 | 3.5 | 0.00 | 0.00 | 0.00 | 42 | 1005.8 |
| 20260504005509 | 68 | 98 | 0.0 | 3.5 | 0.00 | 0.00 | 0.00 | 42 | 1005.8 |
| 20260504005004 | 68 | 56 | 0.9 | 3.5 | 0.00 | 0.00 | 0.00 | 41 | 1005.8 |
| 20260504004512 | 69 | 70 | 0.0 | 3.5 | 0.00 | 0.00 | 0.00 | 41 | 1005.8 |
| 20260504004003 | 69 | 70 | 0.0 | 4.3 | 0.00 | 0.00 | 0.00 | 41 | 1005.8 |
| 20260504003508 | 69 | 150 | 0.9 | 4.3 | 0.00 | 0.00 | 0.00 | 41 | 1005.7 |
| 20260504003017 | 69 | 64 | 0.0 | 5.2 | 0.00 | 0.00 | 0.00 | 41 | 1005.7 |
| 20260504002504 | 69 | 71 | 0.9 | 5.2 | 0.00 | 0.00 | 0.00 | 41 | 1005.6 |
| 20260504002007 | 69 | 105 | 0.0 | 2.6 | 0.00 | 0.00 | 0.00 | 40 | 1005.6 |
| 20260504001525 | 70 | 77 | 0.0 | 3.5 | 0.00 | 0.00 | 0.00 | 40 | 1005.7 |
| 20260504001008 | 70 | 54 | 0.0 | 3.5 | 0.00 | 0.00 | 0.00 | 41 | 1005.7 |
| 20260504000507 | 70 | 334 | 0.9 | 7.0 | 0.00 | 0.00 | 0.00 | 40 | 1005.6 |
| 20260504000049 | 70 | 59 | 1.7 | 7.0 | 0.00 | 0.00 | 0.00 | 40 | 1005.6 |
| 20260503235510 | 70 | 126 | 0.9 | 7.0 | 0.00 | 0.00 | 0.00 | 40 | 1005.6 |
| 20260503235009 | 71 | 70 | 1.7 | 7.0 | 0.00 | 0.00 | 0.00 | 40 | 1005.6 |
| 20260503234526 | 71 | 25 | 1.7 | 6.1 | 0.00 | 0.00 | 0.00 | 40 | 1005.6 |
| 20260503234011 | 71 | 57 | 0.0 | 3.5 | 0.00 | 0.00 | 0.00 | 40 | 1005.6 |
| 20260503233502 | 71 | 92 | 0.9 | 3.5 | 0.00 | 0.00 | 0.00 | 40 | 1005.7 |
| 20260503233013 | 71 | 40 | 1.7 | 4.3 | 0.00 | 0.00 | 0.00 | 40 | 1005.7 |
| 20260503232504 | 71 | 204 | 0.9 | 7.0 | 0.00 | 0.00 | 0.00 | 41 | 1005.8 |
| 20260503232007 | 71 | 37 | 1.7 | 7.0 | 0.00 | 0.00 | 0.00 | 40 | 1005.9 |
| 20260503231520 | 72 | 51 | 1.7 | 7.0 | 0.00 | 0.00 | 0.00 | 39 | 1005.9 |
| 20260503231007 | 72 | 324 | 1.7 | 7.8 | 0.00 | 0.00 | 0.00 | 39 | 1005.9 |
| 20260503230507 | 72 | 107 | 2.6 | 7.8 | 0.00 | 0.00 | 0.00 | 38 | 1005.9 |
| 20260503230022 | 72 | 174 | 1.7 | 7.0 | 0.00 | 0.00 | 0.00 | 39 | 1006.0 |
| 20260503225509 | 73 | 77 | 3.5 | 9.6 | 0.00 | 0.00 | 0.00 | 38 | 1006.0 |
| 20260503225009 | 73 | 95 | 1.7 | 9.6 | 0.00 | 0.00 | 0.00 | 39 | 1006.0 |
| 20260503224525 | 73 | 354 | 2.6 | 7.0 | 0.00 | 0.00 | 0.00 | 39 | 1006.0 |
| 20260503224009 | 73 | 79 | 1.7 | 9.6 | 0.00 | 0.00 | 0.00 | 38 | 1006.0 |
| 20260503223507 | 73 | 39 | 0.9 | 9.6 | 0.00 | 0.00 | 0.00 | 39 | 1006.0 |
| 20260503223036 | 73 | 203 | 1.7 | 7.0 | 0.00 | 0.00 | 0.00 | 37 | 1006.0 |
| 20260503222509 | 73 | 342 | 0.9 | 13.0 | 0.00 | 0.00 | 0.00 | 38 | 1005.9 |
| 20260503222010 | 74 | 75 | 3.5 | 13.0 | 0.00 | 0.00 | 0.00 | 37 | 1005.9 |
| 20260503221518 | 74 | 115 | 1.7 | 5.2 | 0.00 | 0.00 | 0.00 | 38 | 1005.9 |
| 20260503221007 | 74 | 88 | 2.6 | 9.6 | 0.00 | 0.00 | 0.00 | 36 | 1006.0 |
| 20260503220508 | 74 | 87 | 1.7 | 9.6 | 0.00 | 0.00 | 0.00 | 36 | 1005.8 |
| 20260503220022 | 74 | 204 | 2.6 | 9.6 | 0.00 | 0.00 | 0.00 | 36 | 1005.9 |
| 20260503215506 | 74 | 86 | 1.7 | 7.0 | 0.00 | 0.00 | 0.00 | 36 | 1005.9 |
| 20260503215007 | 74 | 49 | 2.6 | 7.0 | 0.00 | 0.00 | 0.00 | 36 | 1006.0 |
| 20260503214524 | 74 | 150 | 0.9 | 6.1 | 0.00 | 0.00 | 0.00 | 37 | 1006.0 |
| 20260503214010 | 74 | 354 | 1.7 | 7.0 | 0.00 | 0.00 | 0.00 | 36 | 1006.0 |
| 20260503213514 | 74 | 5 | 1.7 | 8.7 | 0.00 | 0.00 | 0.00 | 37 | 1006.0 |
| 20260503213027 | 74 | 351 | 2.6 | 8.7 | 0.00 | 0.00 | 0.00 | 36 | 1006.0 |
| 20260503212508 | 74 | 27 | 2.6 | 7.8 | 0.00 | 0.00 | 0.00 | 35 | 1006.2 |
| 20260503212007 | 74 | 77 | 2.6 | 7.0 | 0.00 | 0.00 | 0.00 | 35 | 1006.0 |
| 20260503211526 | 74 | 36 | 1.7 | 7.0 | 0.00 | 0.00 | 0.00 | 35 | 1006.1 |
| 20260503211011 | 74 | 84 | 1.7 | 7.8 | 0.00 | 0.00 | 0.00 | 36 | 1006.2 |
| 20260503210515 | 74 | 81 | 1.7 | 7.8 | 0.00 | 0.00 | 0.00 | 36 | 1006.3 |
| 20260503210011 | 73 | 308 | 2.6 | 7.0 | 0.00 | 0.00 | 0.00 | 37 | 1006.3 |
| 20260503205506 | 74 | 181 | 2.6 | 7.0 | 0.00 | 0.00 | 0.00 | 36 | 1006.4 |
| 20260503205007 | 73 | 267 | 2.6 | 7.0 | 0.00 | 0.00 | 0.00 | 37 | 1006.5 |
| 20260503204503 | 73 | 236 | 2.6 | 7.8 | 0.00 | 0.00 | 0.00 | 36 | 1006.4 |
| 20260503204005 | 74 | 124 | 0.9 | 7.8 | 0.00 | 0.00 | 0.00 | 37 | 1006.6 |
| 20260503203504 | 73 | 54 | 1.7 | 6.1 | 0.00 | 0.00 | 0.00 | 36 | 1006.6 |
| 20260503203018 | 73 | 238 | 1.7 | 8.7 | 0.00 | 0.00 | 0.00 | 37 | 1006.7 |
| 20260503202504 | 73 | 37 | 2.6 | 9.6 | 0.00 | 0.00 | 0.00 | 37 | 1006.6 |
| 20260503202004 | 73 | 267 | 2.6 | 9.6 | 0.00 | 0.00 | 0.00 | 37 | 1006.7 |
| 20260503201511 | 73 | 91 | 1.7 | 8.7 | 0.00 | 0.00 | 0.00 | 36 | 1006.9 |
| 20260503201003 | 73 | 109 | 1.7 | 8.7 | 0.00 | 0.00 | 0.00 | 39 | 1006.9 |
| 20260503200503 | 72 | 337 | 2.6 | 7.0 | 0.00 | 0.00 | 0.00 | 38 | 1006.9 |
| 20260503200015 | 72 | 304 | 1.7 | 7.8 | 0.00 | 0.00 | 0.00 | 37 | 1007.0 |
| 20260503195503 | 73 | 271 | 2.6 | 7.8 | 0.00 | 0.00 | 0.00 | 38 | 1007.1 |
| 20260503195005 | 72 | 60 | 0.9 | 7.0 | 0.00 | 0.00 | 0.00 | 40 | 1007.1 |
| 20260503194515 | 72 | 80 | 1.7 | 11.3 | 0.00 | 0.00 | 0.00 | 40 | 1007.2 |
| 20260503194005 | 72 | 29 | 3.5 | 11.3 | 0.00 | 0.00 | 0.00 | 38 | 1007.3 |
| 20260503193506 | 72 | 103 | 2.6 | 11.3 | 0.00 | 0.00 | 0.00 | 39 | 1007.4 |
| 20260503193012 | 71 | 138 | 2.6 | 11.3 | 0.00 | 0.00 | 0.00 | 38 | 1007.4 |
| 20260503192503 | 72 | 75 | 2.6 | 8.7 | 0.00 | 0.00 | 0.00 | 37 | 1007.6 |
| 20260503192002 | 72 | 334 | 1.7 | 7.0 | 0.00 | 0.00 | 0.00 | 38 | 1007.5 |
| 20260503191508 | 72 | 346 | 0.9 | 7.8 | 0.00 | 0.00 | 0.00 | 40 | 1007.6 |
| 20260503191004 | 72 | 300 | 1.7 | 7.8 | 0.00 | 0.00 | 0.00 | 38 | 1007.6 |
| 20260503190502 | 72 | 79 | 0.9 | 7.8 | 0.00 | 0.00 | 0.00 | 39 | 1007.6 |
| 20260503190013 | 72 | 49 | 3.5 | 7.8 | 0.00 | 0.00 | 0.00 | 39 | 1007.5 |
| 20260503185507 | 71 | 88 | 1.7 | 8.7 | 0.00 | 0.00 | 0.00 | 42 | 1007.7 |
| 20260503185003 | 71 | 52 | 2.6 | 8.7 | 0.00 | 0.00 | 0.00 | 42 | 1007.9 |
| 20260503184517 | 70 | 62 | 1.7 | 10.4 | 0.00 | 0.00 | 0.00 | 39 | 1008.0 |
| 20260503184007 | 71 | 175 | 0.9 | 10.4 | 0.00 | 0.00 | 0.00 | 41 | 1008.0 |
| 20260503183507 | 70 | 71 | 1.7 | 10.4 | 0.00 | 0.00 | 0.00 | 39 | 1008.0 |
| 20260503183016 | 70 | 162 | 2.6 | 10.4 | 0.00 | 0.00 | 0.00 | 41 | 1008.2 |
| 20260503182508 | 70 | 134 | 1.7 | 8.7 | 0.00 | 0.00 | 0.00 | 41 | 1008.1 |
| 20260503182006 | 69 | 255 | 0.9 | 8.7 | 0.00 | 0.00 | 0.00 | 42 | 1008.2 |
| 20260503181517 | 69 | 123 | 2.6 | 8.7 | 0.00 | 0.00 | 0.00 | 39 | 1008.1 |
| 20260503181002 | 70 | 55 | 2.6 | 8.7 | 0.00 | 0.00 | 0.00 | 39 | 1008.3 |
| 20260503180505 | 69 | 141 | 2.6 | 8.7 | 0.00 | 0.00 | 0.00 | 40 | 1008.3 |
| 20260503180016 | 69 | 139 | 1.7 | 9.6 | 0.00 | 0.00 | 0.00 | 41 | 1008.5 |
| 20260503175504 | 68 | 37 | 1.7 | 9.6 | 0.00 | 0.00 | 0.00 | 41 | 1008.6 |
| 20260503175003 | 68 | 84 | 2.6 | 8.7 | 0.00 | 0.00 | 0.00 | 41 | 1008.6 |
| 20260503174516 | 68 | 74 | 2.6 | 10.4 | 0.00 | 0.00 | 0.00 | 40 | 1008.8 |
| 20260503174007 | 68 | 23 | 3.5 | 10.4 | 0.00 | 0.00 | 0.00 | 40 | 1008.9 |
| 20260503173503 | 68 | 168 | 2.6 | 11.3 | 0.00 | 0.00 | 0.00 | 41 | 1009.0 |
| 20260503173036 | 67 | 36 | 1.7 | 11.3 | 0.00 | 0.00 | 0.00 | 42 | 1009.1 |
| 20260503172507 | 67 | 23 | 2.6 | 8.7 | 0.00 | 0.00 | 0.00 | 41 | 1009.1 |
| 20260503172004 | 67 | 51 | 3.5 | 8.7 | 0.00 | 0.00 | 0.00 | 40 | 1009.1 |
| 20260503171516 | 67 | 94 | 3.5 | 8.7 | 0.00 | 0.00 | 0.00 | 42 | 1009.1 |
| 20260503171006 | 67 | 84 | 2.6 | 10.4 | 0.00 | 0.00 | 0.00 | 42 | 1009.2 |
| 20260503170506 | 66 | 312 | 2.6 | 10.4 | 0.00 | 0.00 | 0.00 | 42 | 1009.2 |
| 20260503151005 | 53 | 33 | 0.9 | 5.2 | 0.00 | 0.00 | 0.00 | 58 | 1011.2 |
| 20260503150506 | 53 | 6 | 1.7 | 7.8 | 0.00 | 0.00 | 0.00 | 57 | 1011.4 |
| 20260503131007 | 50 | 38 | 0.0 | 3.5 | 0.00 | 0.00 | 0.00 | 67 | 1013.7 |
| 20260503130507 | 50 | 323 | 0.0 | 3.5 | 0.00 | 0.00 | 0.00 | 66 | 1013.8 |